| time (UTC) | temp F | wind direction | speed MPH | gust MPH | rain 1hr in | rain 24hr in | rain mn in | humidity % | barometer mb |
| 20260505162514 | 38 | 360 | 19.0 | 25.0 | 0.00 | 0.00 | 0.00 | 46 | 934.6 |
| 20260505162013 | 39 | 360 | 17.0 | 25.0 | 0.00 | 0.00 | 0.00 | 47 | 934.6 |
| 20260505161513 | 39 | 360 | 18.0 | 25.0 | 0.00 | 0.00 | 0.00 | 47 | 934.5 |
| 20260505161012 | 38 | 360 | 15.0 | 25.0 | 0.00 | 0.00 | 0.00 | 49 | 934.6 |
| 20260505160511 | 37 | 360 | 14.0 | 22.0 | 0.00 | 0.00 | 0.00 | 50 | 934.5 |
| 20260505152509 | 37 | 360 | 14.0 | 23.0 | 0.00 | 0.00 | 0.00 | 52 | 934.4 |
| 20260505152009 | 37 | 360 | 11.0 | 21.0 | 0.00 | 0.00 | 0.00 | 54 | 934.5 |
| 20260505151509 | 37 | 360 | 14.0 | 22.0 | 0.00 | 0.00 | 0.00 | 53 | 934.5 |
| 20260505151009 | 37 | 360 | 15.0 | 23.0 | 0.00 | 0.00 | 0.00 | 52 | 934.5 |
| 20260505150507 | 37 | 360 | 14.0 | 20.0 | 0.00 | 0.00 | 0.00 | 52 | 934.5 |
| 20260505140559 | 37 | 360 | 14.0 | 20.0 | 0.00 | 0.00 | 0.00 | 59 | 934.0 |
| 20260505140110 | 36 | 360 | 12.0 | 20.0 | 0.00 | 0.00 | 0.00 | 59 | 934.0 |
| 20260505124554 | 35 | 360 | 10.0 | 16.0 | 0.00 | 0.00 | 0.00 | 67 | 933.5 |
| 20260505124051 | 34 | 360 | 11.0 | 16.0 | 0.00 | 0.00 | 0.00 | 68 | 933.5 |
| 20260505123551 | 34 | 360 | 10.0 | 14.0 | 0.00 | 0.00 | 0.00 | 68 | 933.4 |
| 20260505122551 | 34 | 360 | 8.0 | 14.0 | 0.00 | 0.00 | 0.00 | 68 | 933.3 |
| 20260505122051 | 34 | 360 | 9.0 | 13.0 | 0.00 | 0.00 | 0.00 | 68 | 933.3 |
| 20260505121611 | 34 | 360 | 10.0 | 13.0 | 0.00 | 0.00 | 0.00 | 67 | 933.3 |
| 20260505121050 | 34 | 360 | 8.0 | 12.0 | 0.00 | 0.00 | 0.00 | 67 | 933.2 |
| 20260505120550 | 34 | 360 | 8.0 | 12.0 | 0.00 | 0.00 | 0.00 | 67 | 933.2 |
| 20260505120051 | 34 | 360 | 9.0 | 13.0 | 0.00 | 0.00 | 0.00 | 67 | 933.1 |
| 20260505115553 | 34 | 360 | 8.0 | 13.0 | 0.00 | 0.00 | 0.00 | 67 | 933.1 |
| 20260505115052 | 34 | 360 | 9.0 | 13.0 | 0.00 | 0.00 | 0.00 | 67 | 933.1 |
| 20260505114549 | 34 | 360 | 9.0 | 13.0 | 0.00 | 0.00 | 0.00 | 66 | 933.1 |
| 20260505114049 | 34 | 360 | 10.0 | 15.0 | 0.00 | 0.00 | 0.00 | 66 | 933.1 |
| 20260505113550 | 34 | 360 | 11.0 | 15.0 | 0.00 | 0.00 | 0.00 | 66 | 933.1 |
| 20260505112547 | 34 | 360 | 10.0 | 14.0 | 0.00 | 0.00 | 0.00 | 66 | 933.0 |
| 20260505112047 | 34 | 360 | 10.0 | 14.0 | 0.00 | 0.00 | 0.00 | 66 | 933.0 |
| 20260505111548 | 35 | 360 | 10.0 | 15.0 | 0.00 | 0.00 | 0.00 | 66 | 933.0 |
| 20260505111047 | 34 | 360 | 11.0 | 15.0 | 0.00 | 0.00 | 0.00 | 66 | 933.0 |
| 20260505110547 | 34 | 360 | 9.0 | 13.0 | 0.00 | 0.00 | 0.00 | 66 | 933.0 |
| 20260505102042 | 35 | 360 | 7.0 | 10.0 | 0.00 | 0.00 | 0.00 | 64 | 932.9 |
| 20260505101552 | 35 | 360 | 8.0 | 10.0 | 0.00 | 0.00 | 0.00 | 64 | 932.8 |
| 20260505101041 | 35 | 360 | 8.0 | 11.0 | 0.00 | 0.00 | 0.00 | 64 | 932.9 |
| 20260505100541 | 35 | 360 | 8.0 | 11.0 | 0.00 | 0.00 | 0.00 | 64 | 932.9 |
| 20260505100041 | 35 | 360 | 7.0 | 11.0 | 0.00 | 0.00 | 0.00 | 64 | 932.9 |
| 20260505095541 | 35 | 360 | 7.0 | 10.0 | 0.00 | 0.00 | 0.00 | 64 | 932.8 |
| 20260505095040 | 35 | 360 | 7.0 | 9.0 | 0.00 | 0.00 | 0.00 | 63 | 932.8 |
| 20260505094540 | 35 | 360 | 6.0 | 11.0 | 0.00 | 0.00 | 0.00 | 63 | 932.8 |
| 20260505094038 | 35 | 360 | 7.0 | 11.0 | 0.00 | 0.00 | 0.00 | 62 | 932.8 |
| 20260505093539 | 35 | 360 | 7.0 | 11.0 | 0.00 | 0.00 | 0.00 | 62 | 932.7 |
| 20260505092538 | 36 | 360 | 8.0 | 13.0 | 0.00 | 0.00 | 0.00 | 61 | 932.7 |
| 20260505092038 | 36 | 360 | 10.0 | 13.0 | 0.00 | 0.00 | 0.00 | 61 | 932.7 |
| 20260505091540 | 36 | 360 | 9.0 | 13.0 | 0.00 | 0.00 | 0.00 | 61 | 932.7 |
| 20260505091037 | 36 | 360 | 9.0 | 13.0 | 0.00 | 0.00 | 0.00 | 61 | 932.7 |
| 20260505090537 | 36 | 360 | 10.0 | 13.0 | 0.00 | 0.00 | 0.00 | 61 | 932.7 |
| 20260505090051 | 35 | 360 | 10.0 | 13.0 | 0.00 | 0.00 | 0.00 | 61 | 932.6 |
| 20260505085537 | 35 | 360 | 9.0 | 14.0 | 0.00 | 0.00 | 0.00 | 61 | 932.7 |
| 20260505085037 | 35 | 360 | 9.0 | 14.0 | 0.00 | 0.00 | 0.00 | 61 | 932.7 |
| 20260505084542 | 36 | 360 | 9.0 | 13.0 | 0.00 | 0.00 | 0.00 | 60 | 932.6 |
| 20260505084036 | 36 | 360 | 10.0 | 14.0 | 0.00 | 0.00 | 0.00 | 60 | 932.7 |
| 20260505083536 | 36 | 360 | 10.0 | 14.0 | 0.00 | 0.00 | 0.00 | 60 | 932.7 |
| 20260505082535 | 35 | 360 | 9.0 | 12.0 | 0.00 | 0.00 | 0.00 | 59 | 932.7 |
| 20260505082036 | 35 | 360 | 8.0 | 13.0 | 0.00 | 0.00 | 0.00 | 59 | 932.7 |
| 20260505081542 | 36 | 360 | 8.0 | 14.0 | 0.00 | 0.00 | 0.00 | 59 | 932.7 |
| 20260505081036 | 36 | 360 | 10.0 | 13.0 | 0.00 | 0.00 | 0.00 | 58 | 932.6 |
| 20260505080534 | 36 | 360 | 10.0 | 14.0 | 0.00 | 0.00 | 0.00 | 58 | 932.7 |
| 20260505080033 | 36 | 360 | 10.0 | 14.0 | 0.00 | 0.00 | 0.00 | 58 | 932.6 |
| 20260505075535 | 36 | 360 | 11.0 | 15.0 | 0.00 | 0.00 | 0.00 | 58 | 932.6 |
| 20260505075035 | 36 | 360 | 11.0 | 15.0 | 0.00 | 0.00 | 0.00 | 57 | 932.7 |
| 20260505074534 | 36 | 360 | 11.0 | 15.0 | 0.00 | 0.00 | 0.00 | 57 | 932.6 |
| 20260505074034 | 36 | 360 | 10.0 | 14.0 | 0.00 | 0.00 | 0.00 | 57 | 932.7 |
| 20260505073534 | 36 | 360 | 11.0 | 15.0 | 0.00 | 0.00 | 0.00 | 57 | 932.8 |
| 20260505072532 | 36 | 360 | 9.0 | 13.0 | 0.00 | 0.00 | 0.00 | 58 | 932.7 |
| 20260505072031 | 36 | 360 | 9.0 | 12.0 | 0.00 | 0.00 | 0.00 | 58 | 932.7 |
| 20260505071530 | 36 | 360 | 9.0 | 12.0 | 0.00 | 0.00 | 0.00 | 58 | 932.7 |
| 20260505071030 | 36 | 360 | 8.0 | 12.0 | 0.00 | 0.00 | 0.00 | 58 | 932.7 |
| 20260505070533 | 36 | 360 | 8.0 | 12.0 | 0.00 | 0.00 | 0.00 | 58 | 932.7 |
| 20260505070030 | 36 | 360 | 9.0 | 12.0 | 0.00 | 0.00 | 0.00 | 57 | 932.7 |
| 20260505065531 | 36 | 360 | 9.0 | 12.0 | 0.00 | 0.00 | 0.00 | 57 | 932.7 |
| 20260505065031 | 36 | 360 | 9.0 | 15.0 | 0.00 | 0.00 | 0.00 | 57 | 932.7 |
| 20260505064528 | 36 | 360 | 11.0 | 15.0 | 0.00 | 0.00 | 0.00 | 56 | 932.8 |
| 20260505064027 | 36 | 360 | 9.0 | 14.0 | 0.00 | 0.00 | 0.00 | 56 | 932.7 |
| 20260505063528 | 36 | 360 | 10.0 | 14.0 | 0.00 | 0.00 | 0.00 | 56 | 932.8 |
| 20260505062528 | 36 | 360 | 9.0 | 13.0 | 0.00 | 0.00 | 0.00 | 56 | 932.7 |
| 20260505062025 | 36 | 360 | 9.0 | 14.0 | 0.00 | 0.00 | 0.00 | 57 | 932.7 |
| 20260505061525 | 36 | 360 | 10.0 | 14.0 | 0.00 | 0.00 | 0.00 | 57 | 932.7 |
| 20260505061027 | 36 | 360 | 9.0 | 13.0 | 0.00 | 0.00 | 0.00 | 58 | 932.7 |
| 20260505060523 | 35 | 360 | 8.0 | 10.0 | 0.00 | 0.00 | 0.00 | 59 | 932.7 |
| 20260505060031 | 35 | 360 | 7.0 | 10.0 | 0.00 | 0.00 | 0.00 | 60 | 932.6 |
| 20260505055523 | 35 | 360 | 7.0 | 10.0 | 0.00 | 0.00 | 0.00 | 60 | 932.7 |
| 20260505055024 | 35 | 360 | 8.0 | 11.0 | 0.00 | 0.00 | 0.00 | 60 | 932.6 |
| 20260505054534 | 35 | 360 | 7.0 | 11.0 | 0.00 | 0.00 | 0.00 | 61 | 932.6 |
| 20260505054026 | 34 | 360 | 7.0 | 9.0 | 0.00 | 0.00 | 0.00 | 62 | 932.6 |
| 20260505053523 | 34 | 360 | 6.0 | 7.0 | 0.00 | 0.00 | 0.00 | 63 | 932.7 |
| 20260505052523 | 33 | 360 | 4.0 | 6.0 | 0.00 | 0.00 | 0.00 | 62 | 932.5 |
| 20260505052023 | 33 | 360 | 5.0 | 6.0 | 0.00 | 0.00 | 0.00 | 62 | 932.5 |
| 20260505051522 | 33 | 360 | 4.0 | 6.0 | 0.00 | 0.00 | 0.00 | 62 | 932.5 |
| 20260505051022 | 33 | 360 | 5.0 | 7.0 | 0.00 | 0.00 | 0.00 | 61 | 932.5 |
| 20260505050524 | 33 | 360 | 5.0 | 7.0 | 0.00 | 0.00 | 0.00 | 61 | 932.5 |
| 20260505041514 | 35 | 360 | 4.0 | 7.0 | 0.00 | 0.00 | 0.00 | 57 | 932.3 |
| 20260505041014 | 35 | 360 | 5.0 | 7.0 | 0.00 | 0.00 | 0.00 | 56 | 932.4 |
| 20260505040512 | 36 | 360 | 5.0 | 8.0 | 0.00 | 0.00 | 0.00 | 55 | 932.2 |
| 20260505040011 | 37 | 360 | 6.0 | 11.0 | 0.00 | 0.00 | 0.00 | 55 | 932.2 |
| 20260505035513 | 37 | 360 | 6.0 | 13.0 | 0.00 | 0.00 | 0.00 | 54 | 932.2 |
| 20260505035008 | 37 | 360 | 7.0 | 13.0 | 0.00 | 0.00 | 0.00 | 54 | 932.1 |
| 20260505034508 | 38 | 360 | 8.0 | 12.0 | 0.00 | 0.00 | 0.00 | 54 | 932.1 |
| 20260505034008 | 38 | 360 | 9.0 | 15.0 | 0.00 | 0.00 | 0.00 | 53 | 932.0 |
| 20260505033506 | 38 | 360 | 10.0 | 15.0 | 0.00 | 0.00 | 0.00 | 52 | 931.9 |
| 20260505032507 | 39 | 360 | 10.0 | 18.0 | 0.00 | 0.00 | 0.00 | 52 | 931.9 |
| 20260505032007 | 39 | 360 | 12.0 | 20.0 | 0.00 | 0.00 | 0.00 | 51 | 931.8 |
| 20260505031504 | 39 | 360 | 12.0 | 21.0 | 0.00 | 0.00 | 0.00 | 51 | 931.8 |
| 20260505031007 | 39 | 360 | 15.0 | 21.0 | 0.00 | 0.00 | 0.00 | 51 | 931.7 |
| 20260505030502 | 40 | 360 | 11.0 | 19.0 | 0.00 | 0.00 | 0.00 | 51 | 931.7 |
| 20260505030002 | 40 | 360 | 11.0 | 19.0 | 0.00 | 0.00 | 0.00 | 51 | 931.7 |
| 20260505025601 | 40 | 360 | 13.0 | 18.0 | 0.00 | 0.00 | 0.00 | 51 | 931.6 |
| 20260505025059 | 40 | 360 | 11.0 | 20.0 | 0.00 | 0.00 | 0.00 | 51 | 931.6 |
| 20260505024604 | 40 | 360 | 13.0 | 20.0 | 0.00 | 0.00 | 0.00 | 51 | 931.5 |
| 20260505024057 | 40 | 360 | 13.0 | 18.0 | 0.00 | 0.00 | 0.00 | 50 | 931.4 |
| 20260505023556 | 40 | 360 | 12.0 | 18.0 | 0.00 | 0.00 | 0.00 | 51 | 931.3 |
| 20260505022556 | 41 | 360 | 14.0 | 21.0 | 0.00 | 0.00 | 0.00 | 50 | 931.1 |
| 20260505022059 | 41 | 360 | 17.0 | 21.0 | 0.00 | 0.00 | 0.00 | 50 | 931.0 |
| 20260505021556 | 41 | 360 | 17.0 | 22.0 | 0.00 | 0.00 | 0.00 | 49 | 931.0 |
| 20260505021053 | 41 | 360 | 13.0 | 23.0 | 0.00 | 0.00 | 0.00 | 50 | 931.0 |
| 20260505020552 | 42 | 360 | 15.0 | 23.0 | 0.00 | 0.00 | 0.00 | 49 | 930.9 |
| 20260505020054 | 42 | 360 | 14.0 | 19.0 | 0.00 | 0.00 | 0.00 | 49 | 930.8 |
| 20260505015552 | 42 | 360 | 14.0 | 19.0 | 0.00 | 0.00 | 0.00 | 49 | 930.6 |
| 20260505015051 | 42 | 360 | 12.0 | 19.0 | 0.00 | 0.00 | 0.00 | 49 | 930.8 |
| 20260505014551 | 42 | 360 | 11.0 | 21.0 | 0.00 | 0.00 | 0.00 | 49 | 930.6 |
| 20260505014050 | 42 | 360 | 14.0 | 25.0 | 0.00 | 0.00 | 0.00 | 48 | 930.5 |
| 20260505013549 | 42 | 360 | 18.0 | 25.0 | 0.00 | 0.00 | 0.00 | 48 | 930.5 |
| 20260505012548 | 43 | 360 | 15.0 | 22.0 | 0.00 | 0.00 | 0.00 | 48 | 930.4 |
| 20260505012048 | 43 | 360 | 18.0 | 24.0 | 0.00 | 0.00 | 0.00 | 47 | 930.4 |
| 20260505011552 | 43 | 360 | 14.0 | 24.0 | 0.00 | 0.00 | 0.00 | 47 | 930.3 |
| 20260505011047 | 43 | 360 | 18.0 | 24.0 | 0.00 | 0.00 | 0.00 | 47 | 930.3 |
| 20260505010547 | 43 | 360 | 17.0 | 26.0 | 0.00 | 0.00 | 0.00 | 47 | 930.3 |
| 20260505010046 | 43 | 360 | 17.0 | 26.0 | 0.00 | 0.00 | 0.00 | 47 | 930.3 |
| 20260505005546 | 43 | 360 | 18.0 | 25.0 | 0.00 | 0.00 | 0.00 | 46 | 930.3 |
| 20260505005047 | 43 | 360 | 17.0 | 25.0 | 0.00 | 0.00 | 0.00 | 46 | 930.2 |
| 20260505004549 | 44 | 360 | 19.0 | 25.0 | 0.00 | 0.00 | 0.00 | 45 | 930.2 |
| 20260505004048 | 44 | 360 | 18.0 | 25.0 | 0.00 | 0.00 | 0.00 | 45 | 930.1 |
| 20260505003546 | 44 | 360 | 17.0 | 25.0 | 0.00 | 0.00 | 0.00 | 45 | 930.1 |
| 20260505003145 | 44 | 360 | 20.0 | 28.0 | 0.00 | 0.00 | 0.00 | 44 | 930.0 |
| 20260505002545 | 44 | 360 | 21.0 | 28.0 | 0.00 | 0.00 | 0.00 | 44 | 930.0 |
| 20260505002044 | 45 | 360 | 19.0 | 28.0 | 0.00 | 0.00 | 0.00 | 44 | 929.9 |
| 20260505001545 | 45 | 360 | 19.0 | 28.0 | 0.00 | 0.00 | 0.00 | 43 | 929.9 |
| 20260505001043 | 45 | 360 | 20.0 | 28.0 | 0.00 | 0.00 | 0.00 | 43 | 929.9 |
| 20260505000546 | 45 | 360 | 21.0 | 29.0 | 0.00 | 0.00 | 0.00 | 43 | 929.8 |
| 20260505000046 | 46 | 360 | 19.0 | 29.0 | 0.00 | 0.00 | 0.00 | 42 | 929.8 |
| 20260504235544 | 46 | 360 | 19.0 | 29.0 | 0.00 | 0.00 | 0.00 | 42 | 929.8 |
| 20260504235044 | 46 | 360 | 22.0 | 29.0 | 0.00 | 0.00 | 0.00 | 41 | 929.7 |
| 20260504234609 | 48 | 360 | 23.0 | 30.0 | 0.00 | 0.00 | 0.00 | 40 | 929.7 |
| 20260504234042 | 47 | 360 | 21.0 | 35.0 | 0.00 | 0.00 | 0.00 | 41 | 929.6 |
| 20260504233545 | 47 | 360 | 23.0 | 35.0 | 0.00 | 0.00 | 0.00 | 42 | 929.6 |
| 20260504232542 | 46 | 360 | 20.0 | 32.0 | 0.00 | 0.00 | 0.00 | 42 | 929.7 |
| 20260504232041 | 48 | 360 | 24.0 | 32.0 | 0.00 | 0.00 | 0.00 | 41 | 929.6 |
| 20260504231551 | 47 | 360 | 21.0 | 32.0 | 0.00 | 0.00 | 0.00 | 42 | 929.6 |
| 20260504231041 | 47 | 360 | 23.0 | 32.0 | 0.00 | 0.00 | 0.00 | 43 | 929.5 |
| 20260504230542 | 46 | 360 | 24.0 | 31.0 | 0.00 | 0.00 | 0.00 | 44 | 929.5 |
| 20260504230041 | 47 | 360 | 24.0 | 31.0 | 0.00 | 0.00 | 0.00 | 42 | 929.5 |
| 20260504225542 | 47 | 360 | 21.0 | 33.0 | 0.00 | 0.00 | 0.00 | 44 | 929.5 |
| 20260504225047 | 48 | 360 | 23.0 | 33.0 | 0.00 | 0.00 | 0.00 | 43 | 929.4 |
| 20260504224541 | 48 | 360 | 24.0 | 32.0 | 0.00 | 0.00 | 0.00 | 43 | 929.4 |
| 20260504224040 | 48 | 360 | 23.0 | 33.0 | 0.00 | 0.00 | 0.00 | 43 | 929.4 |
| 20260504223540 | 47 | 360 | 24.0 | 32.0 | 0.00 | 0.00 | 0.00 | 43 | 929.4 |
| 20260504222540 | 47 | 360 | 24.0 | 32.0 | 0.00 | 0.00 | 0.00 | 45 | 929.5 |
| 20260504222041 | 47 | 360 | 22.0 | 33.0 | 0.00 | 0.00 | 0.00 | 46 | 929.4 |
| 20260504221544 | 47 | 360 | 23.0 | 33.0 | 0.00 | 0.00 | 0.00 | 46 | 929.4 |
| 20260504221041 | 47 | 360 | 24.0 | 33.0 | 0.00 | 0.00 | 0.00 | 46 | 929.5 |
| 20260504220540 | 48 | 360 | 22.0 | 33.0 | 0.00 | 0.00 | 0.00 | 46 | 929.6 |
| 20260504220040 | 48 | 360 | 21.0 | 33.0 | 0.00 | 0.00 | 0.00 | 47 | 929.6 |
| 20260504215540 | 48 | 360 | 18.0 | 29.0 | 0.00 | 0.00 | 0.00 | 48 | 929.5 |
| 20260504215039 | 48 | 360 | 23.0 | 33.0 | 0.00 | 0.00 | 0.00 | 47 | 929.5 |
| 20260504214542 | 48 | 360 | 22.0 | 33.0 | 0.00 | 0.00 | 0.00 | 47 | 929.5 |
| 20260504214040 | 49 | 360 | 22.0 | 30.0 | 0.00 | 0.00 | 0.00 | 46 | 929.5 |
| 20260504213540 | 48 | 360 | 24.0 | 30.0 | 0.00 | 0.00 | 0.00 | 46 | 929.4 |
| 20260504213143 | 48 | 360 | 24.0 | 36.0 | 0.00 | 0.00 | 0.00 | 45 | 929.4 |
| 20260504212540 | 48 | 360 | 22.0 | 36.0 | 0.00 | 0.00 | 0.00 | 46 | 929.4 |
| 20260504212042 | 50 | 313 | 26.0 | 33.0 | 0.00 | 0.00 | 0.00 | 44 | 929.5 |
| 20260504211540 | 48 | 360 | 20.0 | 34.0 | 0.00 | 0.00 | 0.00 | 45 | 929.4 |
| 20260504211039 | 49 | 360 | 22.0 | 34.0 | 0.00 | 0.00 | 0.00 | 44 | 929.3 |
| 20260504210539 | 49 | 360 | 25.0 | 31.0 | 0.00 | 0.00 | 0.00 | 45 | 929.5 |
| 20260504210047 | 48 | 360 | 22.0 | 32.0 | 0.00 | 0.00 | 0.00 | 45 | 929.4 |
| 20260504205539 | 47 | 360 | 23.0 | 31.0 | 0.00 | 0.00 | 0.00 | 45 | 929.3 |
| 20260504205041 | 47 | 360 | 23.0 | 32.0 | 0.00 | 0.00 | 0.00 | 45 | 929.5 |
| 20260504204618 | 48 | 360 | 25.0 | 35.0 | 0.00 | 0.00 | 0.00 | 44 | 929.4 |
| 20260504204038 | 47 | 360 | 26.0 | 35.0 | 0.00 | 0.00 | 0.00 | 45 | 929.6 |
| 20260504203542 | 47 | 360 | 23.0 | 34.0 | 0.00 | 0.00 | 0.00 | 45 | 929.5 |
| 20260504203138 | 47 | 360 | 21.0 | 32.0 | 0.00 | 0.00 | 0.00 | 45 | 929.6 |
| 20260504202537 | 47 | 360 | 20.0 | 32.0 | 0.00 | 0.00 | 0.00 | 46 | 929.6 |
| 20260504202040 | 47 | 360 | 24.0 | 32.0 | 0.00 | 0.00 | 0.00 | 46 | 929.6 |
| 20260504201537 | 46 | 360 | 23.0 | 32.0 | 0.00 | 0.00 | 0.00 | 46 | 929.5 |
| 20260504201036 | 46 | 360 | 23.0 | 32.0 | 0.00 | 0.00 | 0.00 | 46 | 929.5 |
| 20260504200537 | 47 | 360 | 24.0 | 32.0 | 0.00 | 0.00 | 0.00 | 46 | 929.5 |
| 20260504200039 | 47 | 360 | 24.0 | 32.0 | 0.00 | 0.00 | 0.00 | 45 | 929.7 |
| 20260504195536 | 47 | 360 | 25.0 | 32.0 | 0.00 | 0.00 | 0.00 | 44 | 929.6 |
| 20260504195039 | 48 | 360 | 21.0 | 34.0 | 0.00 | 0.00 | 0.00 | 45 | 929.5 |
| 20260504194545 | 47 | 360 | 25.0 | 34.0 | 0.00 | 0.00 | 0.00 | 46 | 929.5 |
| 20260504194035 | 47 | 360 | 22.0 | 33.0 | 0.00 | 0.00 | 0.00 | 46 | 929.6 |
| 20260504193536 | 47 | 360 | 23.0 | 29.0 | 0.00 | 0.00 | 0.00 | 46 | 929.6 |
| 20260504193138 | 46 | 360 | 21.0 | 29.0 | 0.00 | 0.00 | 0.00 | 48 | 929.6 |
| 20260504192535 | 46 | 360 | 23.0 | 29.0 | 0.00 | 0.00 | 0.00 | 48 | 929.7 |
| 20260504192035 | 47 | 360 | 23.0 | 28.0 | 0.00 | 0.00 | 0.00 | 49 | 929.7 |
| 20260504191535 | 46 | 360 | 23.0 | 28.0 | 0.00 | 0.00 | 0.00 | 48 | 929.6 |
| 20260504191035 | 46 | 360 | 21.0 | 31.0 | 0.00 | 0.00 | 0.00 | 48 | 929.7 |
| 20260504190535 | 47 | 360 | 23.0 | 31.0 | 0.00 | 0.00 | 0.00 | 47 | 929.6 |
| 20260504190037 | 46 | 360 | 23.0 | 29.0 | 0.00 | 0.00 | 0.00 | 47 | 929.6 |
| 20260504185534 | 47 | 360 | 19.0 | 29.0 | 0.00 | 0.00 | 0.00 | 47 | 929.7 |
| 20260504185034 | 48 | 360 | 20.0 | 31.0 | 0.00 | 0.00 | 0.00 | 47 | 929.6 |
| 20260504184534 | 47 | 360 | 24.0 | 34.0 | 0.00 | 0.00 | 0.00 | 49 | 929.6 |
| 20260504184034 | 46 | 360 | 26.0 | 34.0 | 0.00 | 0.00 | 0.00 | 48 | 929.7 |
| 20260504183533 | 47 | 360 | 23.0 | 32.0 | 0.00 | 0.00 | 0.00 | 48 | 929.6 |
| 20260504182537 | 47 | 360 | 22.0 | 31.0 | 0.00 | 0.00 | 0.00 | 48 | 929.6 |
| 20260504182034 | 46 | 360 | 24.0 | 33.0 | 0.00 | 0.00 | 0.00 | 48 | 929.6 |
| 20260504181532 | 46 | 360 | 22.0 | 33.0 | 0.00 | 0.00 | 0.00 | 50 | 929.6 |
| 20260504181031 | 46 | 360 | 23.0 | 33.0 | 0.00 | 0.00 | 0.00 | 48 | 929.6 |
| 20260504180532 | 47 | 360 | 26.0 | 34.0 | 0.00 | 0.00 | 0.00 | 47 | 929.5 |
| 20260504180131 | 47 | 360 | 27.0 | 34.0 | 0.00 | 0.00 | 0.00 | 47 | 929.5 |
| 20260504175530 | 48 | 360 | 25.0 | 33.0 | 0.00 | 0.00 | 0.00 | 47 | 929.5 |
| 20260504175031 | 47 | 360 | 25.0 | 36.0 | 0.00 | 0.00 | 0.00 | 48 | 929.6 |
| 20260504174530 | 47 | 360 | 26.0 | 37.0 | 0.00 | 0.00 | 0.00 | 47 | 929.5 |
| 20260504174030 | 48 | 360 | 26.0 | 38.0 | 0.00 | 0.00 | 0.00 | 49 | 929.5 |
| 20260504173533 | 48 | 360 | 26.0 | 38.0 | 0.00 | 0.00 | 0.00 | 48 | 929.5 |
| 20260504172530 | 48 | 360 | 26.0 | 35.0 | 0.00 | 0.00 | 0.00 | 47 | 929.3 |
| 20260504172030 | 48 | 360 | 27.0 | 35.0 | 0.00 | 0.00 | 0.00 | 49 | 929.3 |
| 20260504171540 | 48 | 360 | 24.0 | 36.0 | 0.00 | 0.00 | 0.00 | 48 | 929.4 |
| 20260504171030 | 48 | 360 | 26.0 | 36.0 | 0.00 | 0.00 | 0.00 | 49 | 929.4 |
| 20260504170530 | 48 | 360 | 23.0 | 36.0 | 0.00 | 0.00 | 0.00 | 49 | 929.3 |